User: anonymous   Login
Location: Unspecified
(0.0000°N, 0.0000°E)
Time: 02:59:19
(UTC+00:00)
Language:

GONETS M 06 - Orbit

View from above orbital plane
View from above orbital plane
View from above satellite
View from above satellite

Ground track
Ground track

The orbit data is extracted from the following two-line orbital elements,

1 39250U 13048B   17232.90680778  .00000010  00000-0  00000+0 0  9995
2 39250  82.4856 192.5185 0019721  71.7355 288.5875 12.42918642178753
Epoch (UTC): 20 August 2017 21:45:48
Eccentricity: 0.0019721
inclination: 82.4856°
perigee height: 1479 km
apogee height: 1510 km
right ascension of ascending node: 192.5185°
argument of perigee: 71.7355°
revolutions per day: 12.42918642
mean anomaly at epoch: 288.5875°
orbit number at epoch: 17875

The dashed part of the orbit path shows where the satellite is in the earth's shadow,  

DLR